DAL1748 KPSP-KLAX

Flight info

Callsign DAL1748
Flight time 0h 22m
Altitude 16000
Route PSP V388 LENHO SEAVU
Aircraft E75L/M-SDE3GILORVW/S

Departure

Time 2026-04-21 03:37
Airport Palm Springs International Airport (KPSP)

Arrival

Time 2026-04-21 04:00
Airport Los Angeles International Airport (KLAX)
Time Latitude Longitude Altitude Speed Heading
2026-04-21 03:26 33.82502 -116.50941 436 ft 0 kts 184°
2026-04-21 03:30 33.82513 -116.50940 436 ft 6 kts 184°
2026-04-21 03:31 33.82537 -116.50961 437 ft 5 kts 88°
2026-04-21 03:31 33.82537 -116.50919 437 ft 7 kts 92°
2026-04-21 03:31 33.82536 -116.50877 437 ft 0 kts 90°
2026-04-21 03:32 33.82536 -116.50821 437 ft 22 kts 89°
2026-04-21 03:32 33.82509 -116.50644 430 ft 23 kts 143°
2026-04-21 03:32 33.82325 -116.50486 419 ft 35 kts 143°
2026-04-21 03:32 33.82285 -116.50363 421 ft 27 kts 141°
2026-04-21 03:33 33.82091 -116.50190 415 ft 41 kts 143°
2026-04-21 03:33 33.81920 -116.50039 411 ft 21 kts 142°
2026-04-21 03:33 33.81864 -116.49985 409 ft 8 kts 130°
2026-04-21 03:33 33.81853 -116.49896 408 ft 0 kts 90°
2026-04-21 03:34 33.81853 -116.49894 408 ft 4 kts 90°
2026-04-21 03:34 33.81904 -116.49827 407 ft 11 kts 343°
2026-04-21 03:34 33.81935 -116.49847 404 ft 0 kts 322°
2026-04-21 03:35 33.81937 -116.49849 405 ft 6 kts 322°
2026-04-21 03:35 33.82153 -116.50040 414 ft 63 kts 323°
2026-04-21 03:35 33.82607 -116.50443 422 ft 97 kts 323°
2026-04-21 03:36 33.83225 -116.50991 451 ft 123 kts 323°
2026-04-21 03:36 33.83922 -116.51588 786 ft 110 kts 326°
2026-04-21 03:36 33.84588 -116.52163 947 ft 127 kts 323°
2026-04-21 03:36 33.85428 -116.52888 810 ft 181 kts 324°
2026-04-21 03:37 33.86514 -116.53860 978 ft 187 kts 323°
2026-04-21 03:37 33.87456 -116.54691 1313 ft 166 kts 321°
2026-04-21 03:37 33.88425 -116.55547 1620 ft 181 kts 321°
2026-04-21 03:37 33.89552 -116.56533 1938 ft 222 kts 321°
2026-04-21 03:38 33.90925 -116.57726 2228 ft 260 kts 322°
2026-04-21 03:38 33.92410 -116.59039 3176 ft 268 kts 322°
2026-04-21 03:38 33.93930 -116.60367 4125 ft 272 kts 325°
2026-04-21 03:38 33.95738 -116.61036 5099 ft 281 kts 358°
2026-04-21 03:39 33.97605 -116.60371 6095 ft 285 kts 34°
2026-04-21 03:39 33.98876 -116.58596 7065 ft 282 kts 69°
2026-04-21 03:39 33.99130 -116.56322 8033 ft 273 kts 103°
2026-04-21 03:39 33.98322 -116.54386 9015 ft 260 kts 140°
2026-04-21 03:40 33.96783 -116.53441 10028 ft 246 kts 176°
2026-04-21 03:40 33.95152 -116.53837 10806 ft 246 kts 213°
2026-04-21 03:40 33.94055 -116.55429 11356 ft 259 kts 249°
2026-04-21 03:40 33.93961 -116.57665 11704 ft 285 kts 282°
2026-04-21 03:41 33.94845 -116.59932 11836 ft 314 kts 296°
2026-04-21 03:41 33.95647 -116.62448 11897 ft 331 kts 275°
2026-04-21 03:41 33.95554 -116.65268 11950 ft 346 kts 261°
2026-04-21 03:41 33.95192 -116.68211 11993 ft 363 kts 259°
2026-04-21 03:42 33.94801 -116.71290 12003 ft 379 kts 261°
2026-04-21 03:42 33.94692 -116.74528 12012 ft 394 kts 268°
2026-04-21 03:42 33.94751 -116.77868 12025 ft 404 kts 269°
2026-04-21 03:42 33.94723 -116.80121 12034 ft 408 kts 265°
2026-04-21 03:43 33.94506 -116.83560 12093 ft 416 kts 264°
2026-04-21 03:43 33.94439 -116.87068 12100 ft 422 kts 267°
2026-04-21 03:43 33.93659 -116.98674 12113 ft 423 kts 262°
2026-04-21 03:43 33.93535 -117.02235 12110 ft 428 kts 269°
2026-04-21 03:44 33.93651 -117.05830 12083 ft 432 kts 270°
2026-04-21 03:44 33.93728 -117.09451 12095 ft 432 kts 265°
2026-04-21 03:44 33.93494 -117.13064 12099 ft 434 kts 263°
2026-04-21 03:44 33.93376 -117.16712 12100 ft 436 kts 266°
2026-04-21 03:45 33.93222 -117.20362 12099 ft 437 kts 263°
2026-04-21 03:45 33.93034 -117.24021 12096 ft 438 kts 265°
2026-04-21 03:45 33.92912 -117.27725 11656 ft 448 kts 265°
2026-04-21 03:45 33.92726 -117.31511 11173 ft 458 kts 265°
2026-04-21 03:46 33.93201 -117.35351 10689 ft 473 kts 285°
2026-04-21 03:46 33.94776 -117.38871 10215 ft 485 kts 304°
2026-04-21 03:46 33.96855 -117.41990 9754 ft 490 kts 307°
2026-04-21 03:46 33.98910 -117.45160 9249 ft 491 kts 302°
2026-04-21 03:47 34.00310 -117.48893 8723 ft 489 kts 285°
2026-04-21 03:47 34.00670 -117.52670 8241 ft 422 kts 267°
2026-04-21 03:47 34.00505 -117.55949 7767 ft 375 kts 263°
2026-04-21 03:47 34.00282 -117.58925 7296 ft 340 kts 262°
2026-04-21 03:48 34.00041 -117.61744 6794 ft 322 kts 262°
2026-04-21 03:48 33.99834 -117.64101 6317 ft 263 kts 262°
2026-04-21 03:48 33.99634 -117.66309 5813 ft 271 kts 262°
2026-04-21 03:48 33.99418 -117.68545 5314 ft 267 kts 262°
2026-04-21 03:49 33.99199 -117.70759 4828 ft 265 kts 262°
2026-04-21 03:49 33.98980 -117.72939 4432 ft 257 kts 262°
2026-04-21 03:49 33.98770 -117.74997 4272 ft 236 kts 262°
2026-04-21 03:49 33.98577 -117.76867 4215 ft 214 kts 264°
2026-04-21 03:50 33.98559 -117.78569 4178 ft 193 kts 271°
2026-04-21 03:50 33.98626 -117.80094 4161 ft 173 kts 272°
2026-04-21 03:50 33.98706 -117.81545 4164 ft 179 kts 272°
2026-04-21 03:50 33.98782 -117.83120 4130 ft 198 kts 270°
2026-04-21 03:51 33.98753 -117.84863 4059 ft 218 kts 265°
2026-04-21 03:51 33.98965 -117.86714 4043 ft 234 kts 298°
2026-04-21 03:51 33.99559 -117.88562 3957 ft 246 kts 269°
2026-04-21 03:51 33.99459 -117.90663 3938 ft 255 kts 261°
2026-04-21 03:52 33.99060 -117.92777 3987 ft 262 kts 258°
2026-04-21 03:52 33.98920 -117.94940 4034 ft 256 kts 269°
2026-04-21 03:52 33.98916 -117.97059 4076 ft 249 kts 268°
2026-04-21 03:52 33.98867 -117.99128 4071 ft 246 kts 268°
2026-04-21 03:53 33.98817 -118.01189 3991 ft 246 kts 267°
2026-04-21 03:53 33.98754 -118.03259 3910 ft 248 kts 265°
2026-04-21 03:53 33.98616 -118.05332 3806 ft 250 kts 264°
2026-04-21 03:53 33.98507 -118.07427 3724 ft 250 kts 265°
2026-04-21 03:54 33.98397 -118.09499 3700 ft 248 kts 265°
2026-04-21 03:54 33.98230 -118.11582 3575 ft 250 kts 262°
2026-04-21 03:54 33.98000 -118.13649 3473 ft 251 kts 262°
2026-04-21 03:54 33.97791 -118.15522 3384 ft 249 kts 262°
2026-04-21 03:55 33.97566 -118.17588 3281 ft 248 kts 262°
2026-04-21 03:55 33.97338 -118.19641 3169 ft 247 kts 262°
2026-04-21 03:55 33.97108 -118.21662 3063 ft 246 kts 262°
2026-04-21 03:55 33.96880 -118.23734 2866 ft 248 kts 264°
2026-04-21 03:56 33.96750 -118.25472 2637 ft 247 kts 263°
2026-04-21 03:56 33.96587 -118.26941 2249 ft 215 kts 261°
2026-04-21 03:56 33.96403 -118.28492 1924 ft 163 kts 262°
2026-04-21 03:56 33.96276 -118.29704 1830 ft 136 kts 263°
2026-04-21 03:57 33.96185 -118.30705 1724 ft 105 kts 264°
2026-04-21 03:57 33.96095 -118.31611 1370 ft 124 kts 263°
2026-04-21 03:57 33.95989 -118.32657 1316 ft 127 kts 263°
2026-04-21 03:57 33.95891 -118.33707 1176 ft 121 kts 264°
2026-04-21 03:58 33.95800 -118.34658 916 ft 110 kts 264°
2026-04-21 03:58 33.95682 -118.35664 825 ft 129 kts 261°
2026-04-21 03:58 33.95566 -118.36623 627 ft 112 kts 262°
2026-04-21 03:58 33.95465 -118.37677 616 ft 121 kts 262°
2026-04-21 03:59 33.95377 -118.38642 407 ft 119 kts 263°
2026-04-21 03:59 33.95268 -118.39643 262 ft 118 kts 264°
2026-04-21 03:59 33.95169 -118.40618 135 ft 107 kts 263°
2026-04-21 04:00 33.95021 -118.41773 126 ft 28 kts 239°
2026-04-21 04:00 33.94943 -118.41920 125 ft 30 kts 234°
2026-04-21 04:00 33.94799 -118.42145 125 ft 30 kts 236°
2026-04-21 04:00 33.94702 -118.42233 125 ft 5 kts 143°
2026-04-21 04:01 33.94706 -118.42016 127 ft 58 kts 84°
2026-04-21 04:01 33.94777 -118.41364 125 ft 74 kts 79°
2026-04-21 04:01 33.94818 -118.41037 123 ft 36 kts 86°
2026-04-21 04:01 33.94859 -118.40662 126 ft 40 kts 83°
2026-04-21 04:02 33.94811 -118.40596 126 ft 15 kts 147°
2026-04-21 04:02 33.94752 -118.40580 125 ft 0 kts 148°
2026-04-21 04:02 33.94699 -118.40576 124 ft 15 kts 176°
2026-04-21 04:02 33.94657 -118.40543 124 ft 5 kts 72°
2026-04-21 04:03 33.94655 -118.40472 123 ft 0 kts 120°